sat.trackr.live / text

‹ back to catalog

STARLINK-32435

NORAD 61259 · 2024-175S

PAYLOAD ACTIVE UNKNOWN

§ Identity

Operator
Country
US
Launch date
2024-09-25
Launch site
AFWTR
Launch vehicle
Mass (kg)
RCS (m²)

Purposes: comms

External: N2YO · Heavens-Above · Gunter

§ Orbital elements

Epoch: 2026-05-25T03:40:15.521952Z

Period
93.85 min
Inclination
53.1601°
Eccentricity
0.0000982
Mean motion
15.34390407 rev/d
Perigee alt
462.1 km
Apogee alt
463.4 km
Semi-major
6,840.9 km
B*
-2.6392e-6
RAAN
198.6565°
Arg perigee
63.3963°
Mean anomaly
296.7140°
Rev number
9,316

§ Raw data

STARLINK-324351 61259U 24175S   26145.15295743 -.00000465  00000+0 -26392-5 0  99992 61259  53.1601 198.6565 0000982  63.3963 296.7140 15.34390407 93164

JSON: /api/v1/satellites/61259 · /tle

For live sub-satellite position, see the globe view (requires WebGL).

§ Visibility from observer

Set your observer location to see the next 7 days of passes ≥ 10°. The values pass through the URL so the page stays shareable.

No JS? Fill the form by hand. The geolocation button needs JavaScript.